Theta_e
316 313 313 314 316 310 309 314 314 313 314 317 316 317 317 317 317 317 318 318 318 318 315 314 312 314 319 319 319 320 320 319 319 322 327 327 328 330 331 332 331 330 329 330
314 314 310 310 312 314 313 313 313 314 314 315 314 315 314 313 314 316 317 317 317 316 313 311 313 313 316 316 318 319 320 319 319 320 323 326 327 328 330 331 331 331 330 330
311 310 311 311 313 316 316 315 313 312 313 312 313 311 313 311 313 313 314 314 314 313 313 314 317 318 318 319 319 319 319 319 319 319 321 324 327 327 328 328 330 330 331 331
312 309 310 312 313 314 315 314 312 314 313 311 310 307 307 307 309 311 313 314 315 316 316 317 318 318 319 319 318 318 318 317 318 319 320 322 325 327 327 328 329 331 331 330
311 309 310 311 312 313 312 314 314 313 314 315 313 314 310 312 312 312 312 315 315 316 316 316 316 317 317 317 318 318 320 320 319 319 319 321 324 326 328 329 330 330 331 331
309 310 307 308 309 313 310 312 313 313 315 315 311 313 309 310 312 312 314 315 315 315 314 315 315 316 317 318 319 319 320 318 318 319 321 323 325 327 329 330 330 331 331 331
310 310 310 310 311 311 312 311 309 314 316 313 309 312 311 308 309 309 311 314 313 315 315 312 311 312 315 318 320 321 320 320 322 324 326 328 328 329 329 330 330 330 330 329
311 311 310 309 310 312 314 313 309 308 309 311 308 313 311 309 310 311 311 312 312 314 309 308 307 309 311 316 319 322 323 324 325 327 330 329 329 327 328 328 327 327 326 327
311 311 307 309 311 311 313 315 309 311 307 309 309 309 311 310 310 312 313 311 312 309 306 306 306 307 308 309 310 313 316 319 321 322 323 322 324 325 325 326 326 326 326 326
307 309 307 309 312 311 311 311 314 313 310 309 311 311 312 311 310 308 309 310 310 306 305 305 305 305 304 304 303 303 304 305 305 307 308 309 309 309 310 310 311 311 311 311
303 305 307 309 312 313 313 313 312 311 311 310 309 308 307 310 309 309 307 310 306 304 304 304 304 303 302 302 302 301 301 301 301 301 300 300 301 301 301 302 302 302 301 302
304 304 308 310 306 308 312 312 312 313 313 312 311 310 306 306 307 308 307 305 304 303 302 302 301 301 301 301 301 301 301 301 300 300 300 300 299 299 299 299 299 299 299 299
307 308 309 310 309 308 309 310 311 310 306 312 314 312 306 306 305 307 304 303 302 302 301 300 300 300 300 300 300 300 300 300 300 300 300 300 300 300 300 300 300 300 300 300
308 307 309 309 308 307 311 310 310 311 313 312 311 310 306 305 305 303 302 301 300 300 300 300 299 299 299 300 299 299 299 299 300 299 300 300 300 301 301 300 300 300 300 300
308 310 309 307 304 306 308 310 309 311 311 311 310 308 309 304 303 302 302 299 299 298 298 298 298 298 297 297 298 301 300 297 298 298 298 300 299 299 300 300 300 300 300 299
308 310 308 308 305 305 307 307 309 310 310 310 309 307 307 304 304 301 299 298 297 296 295 295 295 295 295 295 296 296 296 296 297 297 297 298 298 297 297 298 298 298 298 298
308 309 309 309 306 306 308 308 307 309 309 310 311 310 303 300 303 299 298 297 295 293 292 292 292 292 292 293 294 294 295 295 295 294 294 294 294 293 294 294 295 295 296 296
308 308 309 307 307 309 307 303 306 307 308 308 308 306 304 302 294 295 295 294 292 290 290 290 289 289 290 291 291 292 292 292 292 291 291 290 291 291 292 292 293 293 294 294
307 309 310 309 309 305 304 300 303 305 307 305 308 293 288 289 291 286 288 290 289 288 288 288 288 288 288 288 289 289 289 289 289 290 290 290 290 290 290 291 291 291 291 292
307 308 309 303 308 309 304 298 298 303 307 296 301 292 288 292 299 289 286 286 286 286 286 286 286 286 286 287 287 288 288 287 288 288 288 288 288 288 288 289 289 289 290 290
308 309 309 305 307 304 299 293 295 305 304 289 294 293 290 293 287 285 283 284 284 284 284 284 284 285 286 286 286 286 286 286 286 286 286 286 286 286 286 286 286 287 288 288
308 309 309 304 305 306 289 292 301 294 285 287 288 289 288 285 281 282 282 282 282 283 282 283 284 284 284 284 284 284 284 284 284 283 283 283 283 283 283 283 284 284 284 285
306 305 303 304 302 284 282 283 285 286 285 284 286 286 289 284 282 281 281 281 281 282 283 283 283 283 283 282 281 281 281 281 281 281 282 282 282 282 281 281 281 281 281 282
294 292 293 293 285 282 280 280 283 284 284 284 284 284 284 283 280 280 279 280 281 281 282 282 282 281 280 279 279 279 279 279 279 280 280 280 280 280 280 279 279 279 279 279
294 294 289 285 281 280 280 281 282 282 283 283 281 281 282 281 279 280 280 281 281 281 281 280 280 279 278 278 278 278 278 278 278 278 278 278 278 277 277 277 277 276 276 276
287 294 298 300 285 288 283 280 281 282 280 281 280 279 279 281 281 280 279 279 280 279 278 278 278 277 277 277 276 276 276 276 275 275 275 275 275 275 274 274 275 275 275 274
Wind_Speed
14 4 14 12 13 3 6 5 5 3 3 4 9 15 16 19 20 25 31 32 33 36 37 31 29 25 22 24 27 25 22 22 23 25 29 32 33 33 34 33 29 27 26 25
5 20 5 7 6 8 3 3 4 4 5 6 6 13 15 12 16 30 33 35 35 32 35 33 24 23 25 26 24 26 26 27 27 26 26 30 31 31 31 31 31 30 29 27
10 2 19 11 9 12 11 14 4 3 2 2 4 13 10 9 27 26 32 36 36 35 33 27 22 22 23 24 24 26 30 30 29 28 28 28 31 32 32 30 30 28 29 30
11 7 9 2 14 14 13 8 6 3 4 4 2 10 5 3 4 6 15 19 21 18 22 24 23 24 24 25 24 23 25 29 29 30 29 27 27 30 30 29 27 27 24 24
8 10 13 10 7 13 5 8 13 6 5 3 4 4 4 1 4 4 8 13 14 14 12 12 14 16 17 18 20 21 21 26 27 27 26 24 23 24 29 29 29 27 25 21
6 5 11 12 7 17 7 6 5 3 4 8 9 10 15 7 7 5 6 11 9 11 8 7 5 5 9 10 12 15 15 16 18 21 20 19 17 17 20 22 23 23 22 20
4 8 2 8 7 4 8 8 3 5 5 10 9 7 24 3 1 7 9 8 9 4 7 8 6 4 2 3 4 5 8 9 10 10 10 9 9 9 10 12 14 15 15 16
13 7 12 5 8 7 16 13 6 8 6 4 5 11 11 6 24 26 23 26 15 11 12 11 11 13 14 14 11 7 6 7 7 8 8 8 10 10 11 11 12 12 13 15
13 10 2 6 7 15 9 17 7 3 2 2 5 7 8 8 7 9 11 10 17 18 18 18 19 21 21 21 21 20 17 15 12 10 9 6 5 6 8 9 11 12 13 15
6 2 4 7 7 14 8 11 9 9 6 7 5 5 9 2 8 7 8 13 19 22 22 23 21 20 20 20 21 20 20 20 20 17 15 13 11 8 6 4 3 2 4 6
8 4 0 11 16 18 7 9 8 5 7 7 6 8 7 11 12 8 11 22 28 26 27 25 23 20 19 18 17 17 16 16 15 14 13 11 10 8 6 4 3 2 3 6
11 5 5 15 3 12 20 17 15 7 9 10 2 6 1 5 6 12 15 25 27 26 27 24 21 18 15 14 13 12 11 9 9 7 6 5 4 3 3 3 5 7 8 10
15 6 4 3 0 1 14 12 13 6 2 9 10 12 3 4 5 17 27 26 28 28 25 21 18 14 11 9 7 6 5 5 4 3 3 4 6 8 9 11 13 15 17 19
27 7 17 15 13 8 10 20 19 19 13 18 14 18 6 5 9 13 23 27 28 28 24 20 15 11 8 5 1 1 4 5 6 8 8 10 13 14 16 19 22 24 27 29
11 12 17 20 3 5 9 19 25 21 25 18 25 15 22 9 10 20 29 28 27 23 20 17 12 8 5 2 2 5 9 8 8 11 12 14 17 19 21 23 26 29 31 34
7 4 10 16 10 7 4 12 16 25 29 21 14 7 17 10 21 22 28 29 27 22 17 14 10 6 3 2 3 4 7 10 12 13 15 15 20 22 23 26 28 31 32 32
10 8 7 17 17 13 9 18 20 18 23 25 19 30 6 5 18 25 28 29 28 21 16 12 8 4 2 3 5 7 9 11 13 16 18 21 21 21 21 23 24 26 27 27
16 15 7 4 10 14 12 7 22 21 18 21 16 8 12 12 15 21 25 27 23 18 14 9 5 2 2 4 6 7 9 11 13 15 16 18 20 23 24 24 24 26 28 29
20 17 9 6 11 3 4 7 10 13 23 13 25 7 9 23 19 7 17 19 17 14 10 7 4 2 2 4 6 8 9 10 11 13 16 19 22 24 26 28 29 30 31 31
14 16 11 2 5 9 6 4 4 7 14 10 12 14 13 22 9 5 22 18 15 11 8 6 3 1 2 4 6 7 9 12 15 17 19 21 24 26 28 29 31 32 34 36
9 11 16 7 4 5 2 4 4 10 7 4 13 20 25 9 2 25 25 18 14 11 8 5 4 2 2 4 6 9 11 14 17 20 22 24 25 28 30 32 33 36 37 38
12 9 7 2 3 8 4 4 10 4 6 13 19 24 24 24 27 27 22 18 14 11 8 6 4 3 3 6 8 11 14 16 19 22 24 26 29 31 34 36 37 38 40 42
1 5 7 6 4 2 2 5 3 6 16 15 19 20 28 29 26 23 20 16 13 10 8 6 4 3 5 8 12 15 18 21 23 26 29 31 33 34 36 39 41 43 42 43
2 3 4 4 2 3 4 7 9 14 18 20 23 25 26 29 25 23 19 16 13 11 8 5 4 4 6 9 13 17 21 25 29 31 34 36 38 39 40 41 42 43 44 44
2 4 5 3 3 5 5 11 18 20 22 25 23 23 25 24 21 19 17 14 11 9 6 3 2 4 8 12 16 20 24 27 30 33 35 37 39 41 43 43 43 43 42 41
5 6 5 5 16 4 8 30 28 29 27 25 26 26 20 19 21 18 15 13 10 6 3 1 5 8 11 14 17 20 24 27 30 33 35 37 39 41 42 45 48 43 42 41
Wind_Direction
180 177 212 190 200 149 167 177 186 213 229 185 232 248 251 248 256 256 258 260 262 267 274 272 272 266 259 261 263 264 264 271 271 264 257 253 256 256 256 255 258 259 259 261
184 230 170 175 194 208 174 180 220 270 230 188 253 255 264 224 238 246 252 257 261 266 268 273 272 262 256 259 259 259 262 268 268 264 265 257 259 262 263 263 262 260 261 262
194 238 172 170 181 200 220 224 168 202 327 247 304 271 226 242 236 244 249 257 263 262 263 267 268 262 261 260 261 264 269 267 264 258 258 259 253 255 260 264 266 265 263 264
229 209 168 150 202 185 219 193 169 164 66 244 19 280 251 273 220 211 239 239 245 258 264 266 267 267 267 269 269 271 268 262 261 254 250 256 259 257 261 266 273 275 277 277
206 167 179 205 201 183 217 154 182 156 185 11 216 297 259 207 273 235 249 243 255 261 267 273 268 268 268 268 263 267 265 257 251 244 246 253 260 263 261 265 270 276 282 287
167 186 183 197 158 179 142 88 68 138 160 246 220 200 263 216 197 215 221 249 262 285 261 240 230 248 263 264 259 264 265 246 240 238 239 249 259 266 269 272 277 284 288 288
188 222 214 157 128 138 159 140 146 207 207 233 156 179 250 274 111 182 205 240 276 218 178 174 180 160 115 214 205 234 234 223 222 220 229 240 250 257 264 266 270 273 279 278
196 215 190 188 179 173 190 184 163 193 207 203 143 226 239 208 231 251 248 267 235 179 160 148 124 116 103 101 109 124 153 167 177 193 198 212 225 241 255 254 259 265 277 280
195 227 216 180 168 159 190 210 175 81 53 82 215 285 295 198 223 223 224 210 182 161 146 134 124 116 111 107 104 107 111 117 123 129 141 152 191 221 237 248 256 262 268 269
194 162 192 177 161 214 171 162 189 216 204 227 244 258 239 209 240 231 190 186 167 147 135 131 127 120 114 107 104 103 103 102 102 105 107 109 111 115 122 139 178 222 254 280
162 139 278 146 205 187 163 193 205 175 202 201 233 244 203 227 227 209 192 175 154 140 140 140 135 128 121 115 110 103 102 101 101 101 101 107 110 112 111 103 83 21 336 311
189 140 162 202 309 210 208 201 190 194 203 232 224 255 250 274 219 192 165 148 141 142 143 140 136 131 127 119 111 102 97 92 85 82 78 71 69 67 52 28 4 351 340 334
176 197 158 136 80 279 211 220 207 213 73 197 205 237 103 81 123 146 137 145 148 148 148 146 143 137 128 115 100 86 76 58 40 9 343 329 320 318 320 321 321 321 319 317
177 188 213 212 212 133 196 209 210 209 225 232 224 242 223 190 168 141 144 152 155 154 154 154 151 144 140 136 113 11 357 339 322 325 316 313 313 314 313 314 314 314 315 314
192 210 207 232 184 174 196 201 210 208 221 216 235 223 244 189 185 167 163 159 160 158 159 163 163 165 174 206 282 277 301 309 297 315 322 313 315 313 310 310 311 311 311 310
197 218 181 233 249 212 210 208 204 212 223 226 243 233 246 167 167 165 168 168 169 168 167 167 169 179 199 252 294 307 306 310 315 316 319 321 312 314 314 313 314 314 312 310
193 198 192 221 210 218 233 217 209 211 221 213 217 232 140 190 176 177 174 177 174 171 172 174 179 197 242 290 307 310 316 322 324 328 328 327 323 324 326 326 323 321 319 319
189 197 195 218 153 218 236 210 207 210 219 221 229 250 187 171 157 170 180 178 171 174 176 176 186 226 284 307 315 319 326 329 335 339 341 339 338 340 339 338 336 331 330 329
199 191 217 201 203 313 265 195 176 188 234 205 215 144 122 139 143 156 175 179 177 176 175 182 199 230 292 321 330 333 336 343 348 349 348 346 343 341 339 339 337 336 332 331
185 199 210 162 189 203 248 170 132 110 249 188 190 162 155 149 181 169 179 178 173 173 176 180 190 211 334 346 347 346 347 352 352 352 351 349 344 340 338 337 335 333 331 329
187 193 207 180 203 280 159 152 131 148 240 123 170 165 158 169 155 154 166 165 169 170 170 162 159 160 19 358 355 355 352 351 350 346 344 342 339 335 333 332 331 329 326 324
176 172 200 131 146 251 158 115 184 151 104 145 143 146 146 142 140 149 155 158 161 160 154 145 139 108 34 5 356 351 346 343 340 338 336 333 332 331 329 327 326 324 324 323
215 205 166 195 202 47 62 53 128 155 147 144 148 153 158 148 148 151 152 153 152 151 144 133 119 72 14 358 351 345 339 335 332 330 329 328 327 326 325 324 324 324 325 324
320 327 103 128 181 148 132 115 137 144 139 143 146 153 160 152 149 147 149 151 151 145 138 125 90 37 2 348 340 334 331 329 328 327 327 327 324 323 322 321 321 320 321 322
173 117 131 69 124 112 214 177 153 145 145 145 146 149 150 150 146 151 148 147 144 140 128 110 28 346 339 338 334 330 326 324 323 323 324 324 323 322 320 318 318 317 316 319
191 160 185 224 180 159 173 174 167 155 155 154 154 148 148 151 148 148 146 146 146 141 129 356 326 325 328 329 325 324 324 324 325 326 328 328 325 323 321 319 316 313 311 312